Year,Month,Day,Hour,Minute,Value (Times are PST for barometer in hPa)
2012,03,11,00,00,1000.85
2012,03,11,00,01,1000.85
2012,03,11,00,02,1000.85
2012,03,11,00,03,1000.85
2012,03,11,00,04,1000.85
2012,03,11,00,05,1000.85
2012,03,11,00,06,1000.85
2012,03,11,00,07,1000.85
2012,03,11,00,08,1000.85
2012,03,11,00,09,1000.85
2012,03,11,00,10,1000.85
2012,03,11,00,11,1000.85
2012,03,11,00,12,1000.85
2012,03,11,00,13,1000.85
2012,03,11,00,14,1000.85
2012,03,11,00,15,1000.78
2012,03,11,00,16,1000.78
2012,03,11,00,17,1000.78
2012,03,11,00,18,1000.78
2012,03,11,00,19,1000.78
2012,03,11,00,20,1000.78
2012,03,11,00,21,1000.78
2012,03,11,00,22,1000.78
2012,03,11,00,23,1000.78
2012,03,11,00,24,1000.78
2012,03,11,00,25,1000.78
2012,03,11,00,26,1000.78
2012,03,11,00,27,1000.78
2012,03,11,00,28,1000.78
2012,03,11,00,29,1000.78
2012,03,11,00,30,1000.71
2012,03,11,00,31,1000.71
2012,03,11,00,32,1000.71
2012,03,11,00,33,1000.71
2012,03,11,00,34,1000.71
2012,03,11,00,35,1000.71
2012,03,11,00,36,1000.71
2012,03,11,00,37,1000.71
2012,03,11,00,38,1000.71
2012,03,11,00,39,1000.71
2012,03,11,00,40,1000.71
2012,03,11,00,41,1000.71
2012,03,11,00,42,1000.71
2012,03,11,00,43,1000.71
2012,03,11,00,44,1000.71
2012,03,11,00,45,1000.81
2012,03,11,00,46,1000.81
2012,03,11,00,47,1000.81
2012,03,11,00,48,1000.81
2012,03,11,00,49,1000.81
2012,03,11,00,50,1000.81
2012,03,11,00,51,1000.81
2012,03,11,00,52,1000.81
2012,03,11,00,53,1000.81
2012,03,11,00,54,1000.81
2012,03,11,00,55,1000.81
2012,03,11,00,56,1000.81
2012,03,11,00,57,1000.81
2012,03,11,00,58,1000.81
2012,03,11,00,59,1000.81
2012,03,11,01,00,1000.44
2012,03,11,01,01,1000.44
2012,03,11,01,02,1000.44
2012,03,11,01,03,1000.44
2012,03,11,01,04,1000.44
2012,03,11,01,05,1000.44
2012,03,11,01,06,1000.44
2012,03,11,01,07,1000.44
2012,03,11,01,08,1000.44
2012,03,11,01,09,1000.44
2012,03,11,01,10,1000.44
2012,03,11,01,11,1000.44
2012,03,11,01,12,1000.44
2012,03,11,01,13,1000.44
2012,03,11,01,14,1000.44
2012,03,11,01,15,1000.20
2012,03,11,01,16,1000.20
2012,03,11,01,17,1000.20
2012,03,11,01,18,1000.20
2012,03,11,01,19,1000.20
2012,03,11,01,20,1000.20
2012,03,11,01,21,1000.20
2012,03,11,01,22,1000.20
2012,03,11,01,23,1000.20
2012,03,11,01,24,1000.20
2012,03,11,01,25,1000.20
2012,03,11,01,26,1000.20
2012,03,11,01,27,1000.20
2012,03,11,01,28,1000.20
2012,03,11,01,29,1000.20
2012,03,11,01,30,1000.31
2012,03,11,01,31,1000.31
2012,03,11,01,32,1000.31
2012,03,11,01,33,1000.31
2012,03,11,01,34,1000.31
2012,03,11,01,35,1000.31
2012,03,11,01,36,1000.31
2012,03,11,01,37,1000.31
2012,03,11,01,38,1000.31
2012,03,11,01,39,1000.31
2012,03,11,01,40,1000.31
2012,03,11,01,41,1000.31
2012,03,11,01,42,1000.31
2012,03,11,01,43,1000.31
2012,03,11,01,44,1000.31
2012,03,11,01,45,1000.34
2012,03,11,01,46,1000.34
2012,03,11,01,47,1000.34
2012,03,11,01,48,1000.34
2012,03,11,01,49,1000.34
2012,03,11,01,50,1000.34
2012,03,11,01,51,1000.34
2012,03,11,01,52,1000.34
2012,03,11,01,53,1000.34
2012,03,11,01,54,1000.34
2012,03,11,01,55,1000.34
2012,03,11,01,56,1000.34
2012,03,11,01,57,1000.34
2012,03,11,01,58,1000.34
2012,03,11,01,59,1000.34
2012,03,11,03,00,1000.27
2012,03,11,03,01,1000.27
2012,03,11,03,02,1000.27
2012,03,11,03,03,1000.27
2012,03,11,03,04,1000.27
2012,03,11,03,05,1000.27
2012,03,11,03,06,1000.27
2012,03,11,03,07,1000.27
2012,03,11,03,08,1000.27
2012,03,11,03,09,1000.27
2012,03,11,03,10,1000.27
2012,03,11,03,11,1000.27
2012,03,11,03,12,1000.27
2012,03,11,03,13,1000.27
2012,03,11,03,14,1000.27
2012,03,11,03,15,1000.11
2012,03,11,03,16,1000.10
2012,03,11,03,17,1000.10
2012,03,11,03,18,1000.10
2012,03,11,03,19,1000.10
2012,03,11,03,20,1000.10
2012,03,11,03,21,1000.10
2012,03,11,03,22,1000.10
2012,03,11,03,23,1000.10
2012,03,11,03,24,1000.10
2012,03,11,03,25,1000.10
2012,03,11,03,26,1000.10
2012,03,11,03,27,1000.10
2012,03,11,03,28,1000.10
2012,03,11,03,29,1000.10
2012,03,11,03,30,1000.07
2012,03,11,03,31,1000.07
2012,03,11,03,32,1000.07
2012,03,11,03,33,1000.07
2012,03,11,03,34,1000.07
2012,03,11,03,35,1000.07
2012,03,11,03,36,1000.07
2012,03,11,03,37,1000.07
2012,03,11,03,38,1000.07
2012,03,11,03,39,1000.07
2012,03,11,03,40,1000.07
2012,03,11,03,41,1000.07
2012,03,11,03,42,1000.07
2012,03,11,03,43,1000.07
2012,03,11,03,44,1000.07
2012,03,11,03,45,1000.19
2012,03,11,03,46,1000.20
2012,03,11,03,47,1000.20
2012,03,11,03,48,1000.20
2012,03,11,03,49,1000.20
2012,03,11,03,50,1000.20
2012,03,11,03,51,1000.20
2012,03,11,03,52,1000.20
2012,03,11,03,53,1000.20
2012,03,11,03,54,1000.20
2012,03,11,03,55,1000.20
2012,03,11,03,56,1000.20
2012,03,11,03,57,1000.20
2012,03,11,03,58,1000.20
2012,03,11,03,59,1000.20
2012,03,11,04,00,1000.24
2012,03,11,04,01,1000.24
2012,03,11,04,02,1000.24
2012,03,11,04,03,1000.24
2012,03,11,04,04,1000.24
2012,03,11,04,05,1000.24
2012,03,11,04,06,1000.24
2012,03,11,04,07,1000.24
2012,03,11,04,08,1000.24
2012,03,11,04,09,1000.24
2012,03,11,04,10,1000.24
2012,03,11,04,11,1000.24
2012,03,11,04,12,1000.24
2012,03,11,04,13,1000.24
2012,03,11,04,14,1000.24
2012,03,11,04,15,1000.10
2012,03,11,04,16,1000.10
2012,03,11,04,17,1000.10
2012,03,11,04,18,1000.10
2012,03,11,04,19,1000.10
2012,03,11,04,20,1000.10
2012,03,11,04,21,1000.10
2012,03,11,04,22,1000.10
2012,03,11,04,23,1000.10
2012,03,11,04,24,1000.10
2012,03,11,04,25,1000.10
2012,03,11,04,26,1000.10
2012,03,11,04,27,1000.10
2012,03,11,04,28,1000.10
2012,03,11,04,29,1000.10
2012,03,11,04,30,1000.27
2012,03,11,04,31,1000.27
2012,03,11,04,32,1000.27
2012,03,11,04,33,1000.27
2012,03,11,04,34,1000.27
2012,03,11,04,35,1000.27
2012,03,11,04,36,1000.27
2012,03,11,04,37,1000.27
2012,03,11,04,38,1000.27
2012,03,11,04,39,1000.27
2012,03,11,04,40,1000.27
2012,03,11,04,41,1000.27
2012,03,11,04,42,1000.27
2012,03,11,04,43,1000.27
2012,03,11,04,44,1000.27
2012,03,11,04,45,1000.31
2012,03,11,04,46,1000.31
2012,03,11,04,47,1000.31
2012,03,11,04,48,1000.31
2012,03,11,04,49,1000.31
2012,03,11,04,50,1000.31
2012,03,11,04,51,1000.31
2012,03,11,04,52,1000.31
2012,03,11,04,53,1000.31
2012,03,11,04,54,1000.31
2012,03,11,04,55,1000.31
2012,03,11,04,56,1000.31
2012,03,11,04,57,1000.31
2012,03,11,04,58,1000.31
2012,03,11,04,59,1000.31
2012,03,11,05,00,1000.10
2012,03,11,05,01,1000.10
2012,03,11,05,02,1000.10
2012,03,11,05,03,1000.10
2012,03,11,05,04,1000.10
2012,03,11,05,05,1000.10
2012,03,11,05,06,1000.10
2012,03,11,05,07,1000.10
2012,03,11,05,08,1000.10
2012,03,11,05,09,1000.10
2012,03,11,05,10,1000.10
2012,03,11,05,11,1000.10
2012,03,11,05,12,1000.10
2012,03,11,05,13,1000.10
2012,03,11,05,14,1000.10
2012,03,11,05,15,999.88
2012,03,11,05,16,999.87
2012,03,11,05,17,999.87
2012,03,11,05,18,999.87
2012,03,11,05,19,999.87
2012,03,11,05,20,999.87
2012,03,11,05,21,999.87
2012,03,11,05,22,999.87
2012,03,11,05,23,999.87
2012,03,11,05,24,999.87
2012,03,11,05,25,999.87
2012,03,11,05,26,999.87
2012,03,11,05,27,999.87
2012,03,11,05,28,999.87
2012,03,11,05,29,999.87
2012,03,11,05,30,999.80
2012,03,11,05,31,999.80
2012,03,11,05,32,999.80
2012,03,11,05,33,999.80
2012,03,11,05,34,999.80
2012,03,11,05,35,999.80
2012,03,11,05,36,999.80
2012,03,11,05,37,999.80
2012,03,11,05,38,999.80
2012,03,11,05,39,999.80
2012,03,11,05,40,999.80
2012,03,11,05,41,999.80
2012,03,11,05,42,999.80
2012,03,11,05,43,999.80
2012,03,11,05,44,999.80
2012,03,11,05,45,999.54
2012,03,11,05,46,999.53
2012,03,11,05,47,999.53
2012,03,11,05,48,999.53
2012,03,11,05,49,999.53
2012,03,11,05,50,999.53
2012,03,11,05,51,999.53
2012,03,11,05,52,999.53
2012,03,11,05,53,999.53
2012,03,11,05,54,999.53
2012,03,11,05,55,999.53
2012,03,11,05,56,999.53
2012,03,11,05,57,999.53
2012,03,11,05,58,999.53
2012,03,11,05,59,999.53
2012,03,11,06,00,999.46
2012,03,11,06,01,999.46
2012,03,11,06,02,999.46
2012,03,11,06,03,999.46
2012,03,11,06,04,999.46
2012,03,11,06,05,999.46
2012,03,11,06,06,999.46
2012,03,11,06,07,999.46
2012,03,11,06,08,999.46
2012,03,11,06,09,999.46
2012,03,11,06,10,999.46
2012,03,11,06,11,999.46
2012,03,11,06,12,999.46
2012,03,11,06,13,999.46
2012,03,11,06,14,999.46
2012,03,11,06,15,999.46
2012,03,11,06,16,999.46
2012,03,11,06,17,999.46
2012,03,11,06,18,999.46
2012,03,11,06,19,999.46
2012,03,11,06,20,999.46
2012,03,11,06,21,999.46
2012,03,11,06,22,999.46
2012,03,11,06,23,999.46
2012,03,11,06,24,999.46
2012,03,11,06,25,999.46
2012,03,11,06,26,999.46
2012,03,11,06,27,999.46
2012,03,11,06,28,999.46
2012,03,11,06,29,999.46
2012,03,11,06,30,999.70
2012,03,11,06,31,999.70
2012,03,11,06,32,999.70
2012,03,11,06,33,999.70
2012,03,11,06,34,999.70
2012,03,11,06,35,999.70
2012,03,11,06,36,999.70
2012,03,11,06,37,999.70
2012,03,11,06,38,999.70
2012,03,11,06,39,999.70
2012,03,11,06,40,999.70
2012,03,11,06,41,999.70
2012,03,11,06,42,999.70
2012,03,11,06,43,999.70
2012,03,11,06,44,999.70
2012,03,11,06,45,999.80
2012,03,11,06,46,999.80
2012,03,11,06,47,999.80
2012,03,11,06,48,999.80
2012,03,11,06,49,999.80
2012,03,11,06,50,999.80
2012,03,11,06,51,999.80
2012,03,11,06,52,999.80
2012,03,11,06,53,999.80
2012,03,11,06,54,999.80
2012,03,11,06,55,999.80
2012,03,11,06,56,999.80
2012,03,11,06,57,999.80
2012,03,11,06,58,999.80
2012,03,11,06,59,999.80
2012,03,11,07,00,999.80
2012,03,11,07,01,999.80
2012,03,11,07,02,999.80
2012,03,11,07,03,999.80
2012,03,11,07,04,999.80
2012,03,11,07,05,999.80
2012,03,11,07,06,999.80
2012,03,11,07,07,999.80
2012,03,11,07,08,999.80
2012,03,11,07,09,999.80
2012,03,11,07,10,999.80
2012,03,11,07,11,999.80
2012,03,11,07,12,999.80
2012,03,11,07,13,999.80
2012,03,11,07,14,999.80
2012,03,11,07,15,999.80
2012,03,11,07,16,999.80
2012,03,11,07,17,999.80
2012,03,11,07,18,999.80
2012,03,11,07,19,999.80
2012,03,11,07,20,999.80
2012,03,11,07,21,999.80
2012,03,11,07,22,999.80
2012,03,11,07,23,999.80
2012,03,11,07,24,999.80
2012,03,11,07,25,999.80
2012,03,11,07,26,999.80
2012,03,11,07,27,999.80
2012,03,11,07,28,999.80
2012,03,11,07,29,999.80
2012,03,11,07,30,999.83
2012,03,11,07,31,999.83
2012,03,11,07,32,999.83
2012,03,11,07,33,999.83
2012,03,11,07,34,999.83
2012,03,11,07,35,999.83
2012,03,11,07,36,999.83
2012,03,11,07,37,999.83
2012,03,11,07,38,999.83
2012,03,11,07,39,999.83
2012,03,11,07,40,999.83
2012,03,11,07,41,999.83
2012,03,11,07,42,999.83
2012,03,11,07,43,999.83
2012,03,11,07,44,999.83
2012,03,11,07,45,999.83
2012,03,11,07,46,999.83
2012,03,11,07,47,999.83
2012,03,11,07,48,999.83
2012,03,11,07,49,999.83
2012,03,11,07,50,999.83
2012,03,11,07,51,999.83
2012,03,11,07,52,999.83
2012,03,11,07,53,999.83
2012,03,11,07,54,999.83
2012,03,11,07,55,999.83
2012,03,11,07,56,999.83
2012,03,11,07,57,999.83
2012,03,11,07,58,999.83
2012,03,11,07,59,999.83
2012,03,11,08,00,999.93
2012,03,11,08,01,999.93
2012,03,11,08,02,999.93
2012,03,11,08,03,999.93
2012,03,11,08,04,999.93
2012,03,11,08,05,999.93
2012,03,11,08,06,999.93
2012,03,11,08,07,999.93
2012,03,11,08,08,999.93
2012,03,11,08,09,999.93
2012,03,11,08,10,999.93
2012,03,11,08,11,999.93
2012,03,11,08,12,999.93
2012,03,11,08,13,999.93
2012,03,11,08,14,999.93
2012,03,11,08,15,999.93
2012,03,11,08,16,999.93
2012,03,11,08,17,999.93
2012,03,11,08,18,999.93
2012,03,11,08,19,999.93
2012,03,11,08,20,999.93
2012,03,11,08,21,999.93
2012,03,11,08,22,999.93
2012,03,11,08,23,999.93
2012,03,11,08,24,999.93
2012,03,11,08,25,999.93
2012,03,11,08,26,999.93
2012,03,11,08,27,999.93
2012,03,11,08,28,999.93
2012,03,11,08,29,999.93
2012,03,11,08,30,1000.03
2012,03,11,08,31,1000.03
2012,03,11,08,32,1000.03
2012,03,11,08,33,1000.03
2012,03,11,08,34,1000.03
2012,03,11,08,35,1000.03
2012,03,11,08,36,1000.03
2012,03,11,08,37,1000.03
2012,03,11,08,38,1000.03
2012,03,11,08,39,1000.03
2012,03,11,08,40,1000.03
2012,03,11,08,41,1000.03
2012,03,11,08,42,1000.03
2012,03,11,08,43,1000.03
2012,03,11,08,44,1000.03
2012,03,11,08,45,1000.19
2012,03,11,08,46,1000.20
2012,03,11,08,47,1000.20
2012,03,11,08,48,1000.20
2012,03,11,08,49,1000.20
2012,03,11,08,50,1000.20
2012,03,11,08,51,1000.20
2012,03,11,08,52,1000.20
2012,03,11,08,53,1000.20
2012,03,11,08,54,1000.20
2012,03,11,08,55,1000.20
2012,03,11,08,56,1000.20
2012,03,11,08,57,1000.20
2012,03,11,08,58,1000.20
2012,03,11,08,59,1000.20
2012,03,11,09,00,1000.27
2012,03,11,09,01,1000.27
2012,03,11,09,02,1000.27
2012,03,11,09,03,1000.27
2012,03,11,09,04,1000.27
2012,03,11,09,05,1000.27
2012,03,11,09,06,1000.27
2012,03,11,09,07,1000.27
2012,03,11,09,08,1000.27
2012,03,11,09,09,1000.27
2012,03,11,09,10,1000.27
2012,03,11,09,11,1000.27
2012,03,11,09,12,1000.27
2012,03,11,09,13,1000.27
2012,03,11,09,14,1000.27
2012,03,11,09,15,1000.31
2012,03,11,09,16,1000.31
2012,03,11,09,17,1000.31
2012,03,11,09,18,1000.31
2012,03,11,09,19,1000.31
2012,03,11,09,20,1000.31
2012,03,11,09,21,1000.31
2012,03,11,09,22,1000.31
2012,03,11,09,23,1000.31
2012,03,11,09,24,1000.31
2012,03,11,09,25,1000.31
2012,03,11,09,26,1000.31
2012,03,11,09,27,1000.31
2012,03,11,09,28,1000.31
2012,03,11,09,29,1000.31
2012,03,11,09,30,1000.31
2012,03,11,09,31,1000.31
2012,03,11,09,32,1000.31
2012,03,11,09,33,1000.31
2012,03,11,09,34,1000.31
2012,03,11,09,35,1000.31
2012,03,11,09,36,1000.31
2012,03,11,09,37,1000.31
2012,03,11,09,38,1000.31
2012,03,11,09,39,1000.31
2012,03,11,09,40,1000.31
2012,03,11,09,41,1000.31
2012,03,11,09,42,1000.31
2012,03,11,09,43,1000.31
2012,03,11,09,44,1000.31
2012,03,11,09,45,1000.41
2012,03,11,09,46,1000.41
2012,03,11,09,47,1000.41
2012,03,11,09,48,1000.41
2012,03,11,09,49,1000.41
2012,03,11,09,50,1000.41
2012,03,11,09,51,1000.41
2012,03,11,09,52,1000.41
2012,03,11,09,53,1000.41
2012,03,11,09,54,1000.41
2012,03,11,09,55,1000.41
2012,03,11,09,56,1000.41
2012,03,11,09,57,1000.41
2012,03,11,09,58,1000.41
2012,03,11,09,59,1000.41
2012,03,11,10,00,1000.53
2012,03,11,10,01,1000.54
2012,03,11,10,02,1000.54
2012,03,11,10,03,1000.54
2012,03,11,10,04,1000.54
2012,03,11,10,05,1000.54
2012,03,11,10,06,1000.54
2012,03,11,10,07,1000.54
2012,03,11,10,08,1000.54
2012,03,11,10,09,1000.54
2012,03,11,10,10,1000.54
2012,03,11,10,11,1000.54
2012,03,11,10,12,1000.54
2012,03,11,10,13,1000.54
2012,03,11,10,14,1000.54
2012,03,11,10,15,1000.78
2012,03,11,10,16,1000.78
2012,03,11,10,17,1000.78
2012,03,11,10,18,1000.78
2012,03,11,10,19,1000.78
2012,03,11,10,20,1000.78
2012,03,11,10,21,1000.78
2012,03,11,10,22,1000.78
2012,03,11,10,23,1000.78
2012,03,11,10,24,1000.78
2012,03,11,10,25,1000.78
2012,03,11,10,26,1000.78
2012,03,11,10,27,1000.78
2012,03,11,10,28,1000.78
2012,03,11,10,29,1000.78
2012,03,11,10,30,1000.85
2012,03,11,10,31,1000.85
2012,03,11,10,32,1000.85
2012,03,11,10,33,1000.85
2012,03,11,10,34,1000.85
2012,03,11,10,35,1000.85
2012,03,11,10,36,1000.85
2012,03,11,10,37,1000.85
2012,03,11,10,38,1000.85
2012,03,11,10,39,1000.85
2012,03,11,10,40,1000.85
2012,03,11,10,41,1000.85
2012,03,11,10,42,1000.85
2012,03,11,10,43,1000.85
2012,03,11,10,44,1000.85
2012,03,11,10,45,1000.95
2012,03,11,10,46,1000.95
2012,03,11,10,47,1000.95
2012,03,11,10,48,1000.95
2012,03,11,10,49,1000.95
2012,03,11,10,50,1000.95
2012,03,11,10,51,1000.95
2012,03,11,10,52,1000.95
2012,03,11,10,53,1000.95
2012,03,11,10,54,1000.95
2012,03,11,10,55,1000.95
2012,03,11,10,56,1000.95
2012,03,11,10,57,1000.95
2012,03,11,10,58,1000.95
2012,03,11,10,59,1000.95
2012,03,11,11,00,1001.21
2012,03,11,11,01,1001.22
2012,03,11,11,02,1001.22
2012,03,11,11,03,1001.22
2012,03,11,11,04,1001.22
2012,03,11,11,05,1001.22
2012,03,11,11,06,1001.22
2012,03,11,11,07,1001.22
2012,03,11,11,08,1001.22
2012,03,11,11,09,1001.22
2012,03,11,11,10,1001.22
2012,03,11,11,11,1001.22
2012,03,11,11,12,1001.22
2012,03,11,11,13,1001.22
2012,03,11,11,14,1001.22
2012,03,11,11,15,1001.29
2012,03,11,11,16,1001.29
2012,03,11,11,17,1001.29
2012,03,11,11,18,1001.29
2012,03,11,11,19,1001.29
2012,03,11,11,20,1001.29
2012,03,11,11,21,1001.29
2012,03,11,11,22,1001.29
2012,03,11,11,23,1001.29
2012,03,11,11,24,1001.29
2012,03,11,11,25,1001.29
2012,03,11,11,26,1001.29
2012,03,11,11,27,1001.29
2012,03,11,11,28,1001.29
2012,03,11,11,29,1001.29
2012,03,11,11,30,1001.13
2012,03,11,11,31,1001.12
2012,03,11,11,32,1001.12
2012,03,11,11,33,1001.12
2012,03,11,11,34,1001.12
2012,03,11,11,35,1001.12
2012,03,11,11,36,1001.12
2012,03,11,11,37,1001.12
2012,03,11,11,38,1001.12
2012,03,11,11,39,1001.12
2012,03,11,11,40,1001.12
2012,03,11,11,41,1001.12
2012,03,11,11,42,1001.12
2012,03,11,11,43,1001.12
2012,03,11,11,44,1001.12
2012,03,11,11,45,1001.41
2012,03,11,11,46,1001.42
2012,03,11,11,47,1001.42
2012,03,11,11,48,1001.42
2012,03,11,11,49,1001.42
2012,03,11,11,50,1001.42
2012,03,11,11,51,1001.42
2012,03,11,11,52,1001.42
2012,03,11,11,53,1001.42
2012,03,11,11,54,1001.42
2012,03,11,11,55,1001.42
2012,03,11,11,56,1001.42
2012,03,11,11,57,1001.42
2012,03,11,11,58,1001.42
2012,03,11,11,59,1001.42
2012,03,11,12,00,1001.72
2012,03,11,12,01,1001.73
2012,03,11,12,02,1001.73
2012,03,11,12,03,1001.73
2012,03,11,12,04,1001.73
2012,03,11,12,05,1001.73
2012,03,11,12,06,1001.73
2012,03,11,12,07,1001.73
2012,03,11,12,08,1001.73
2012,03,11,12,09,1001.73
2012,03,11,12,10,1001.73
2012,03,11,12,11,1001.73
2012,03,11,12,12,1001.73
2012,03,11,12,13,1001.73
2012,03,11,12,14,1001.73
2012,03,11,12,15,1001.85
2012,03,11,12,16,1001.86
2012,03,11,12,17,1001.86
2012,03,11,12,18,1001.86
2012,03,11,12,19,1001.86
2012,03,11,12,20,1001.86
2012,03,11,12,21,1001.86
2012,03,11,12,22,1001.86
2012,03,11,12,23,1001.86
2012,03,11,12,24,1001.86
2012,03,11,12,25,1001.86
2012,03,11,12,26,1001.86
2012,03,11,12,27,1001.86
2012,03,11,12,28,1001.86
2012,03,11,12,29,1001.86
2012,03,11,12,30,1001.97
2012,03,11,12,31,1001.97
2012,03,11,12,32,1001.97
2012,03,11,12,33,1001.97
2012,03,11,12,34,1001.97
2012,03,11,12,35,1001.97
2012,03,11,12,36,1001.97
2012,03,11,12,37,1001.97
2012,03,11,12,38,1001.97
2012,03,11,12,39,1001.97
2012,03,11,12,40,1001.97
2012,03,11,12,41,1001.97
2012,03,11,12,42,1001.97
2012,03,11,12,43,1001.97
2012,03,11,12,44,1001.97
2012,03,11,12,45,1002.07
2012,03,11,12,46,1002.07
2012,03,11,12,47,1002.07
2012,03,11,12,48,1002.07
2012,03,11,12,49,1002.07
2012,03,11,12,50,1002.07
2012,03,11,12,51,1002.07
2012,03,11,12,52,1002.07
2012,03,11,12,53,1002.07
2012,03,11,12,54,1002.07
2012,03,11,12,55,1002.07
2012,03,11,12,56,1002.07
2012,03,11,12,57,1002.07
2012,03,11,12,58,1002.07
2012,03,11,12,59,1002.07
2012,03,11,13,00,1002.36
2012,03,11,13,01,1002.37
2012,03,11,13,02,1002.37
2012,03,11,13,03,1002.37
2012,03,11,13,04,1002.37
2012,03,11,13,05,1002.37
2012,03,11,13,06,1002.37
2012,03,11,13,07,1002.37
2012,03,11,13,08,1002.37
2012,03,11,13,09,1002.37
2012,03,11,13,10,1002.37
2012,03,11,13,11,1002.37
2012,03,11,13,12,1002.37
2012,03,11,13,13,1002.37
2012,03,11,13,14,1002.37
2012,03,11,13,15,1002.54
2012,03,11,13,16,1002.54
2012,03,11,13,17,1002.54
2012,03,11,13,18,1002.54
2012,03,11,13,19,1002.54
2012,03,11,13,20,1002.54
2012,03,11,13,21,1002.54
2012,03,11,13,22,1002.54
2012,03,11,13,23,1002.54
2012,03,11,13,24,1002.54
2012,03,11,13,25,1002.54
2012,03,11,13,26,1002.54
2012,03,11,13,27,1002.54
2012,03,11,13,28,1002.54
2012,03,11,13,29,1002.54
2012,03,11,13,30,1002.74
2012,03,11,13,31,1002.74
2012,03,11,13,32,1002.74
2012,03,11,13,33,1002.74
2012,03,11,13,34,1002.74
2012,03,11,13,35,1002.74
2012,03,11,13,36,1002.74
2012,03,11,13,37,1002.74
2012,03,11,13,38,1002.74
2012,03,11,13,39,1002.74
2012,03,11,13,40,1002.74
2012,03,11,13,41,1002.74
2012,03,11,13,42,1002.74
2012,03,11,13,43,1002.74
2012,03,11,13,44,1002.74
2012,03,11,13,45,1002.88
2012,03,11,13,46,1002.88
2012,03,11,13,47,1002.88
2012,03,11,13,48,1002.88
2012,03,11,13,49,1002.88
2012,03,11,13,50,1002.88
2012,03,11,13,51,1002.88
2012,03,11,13,52,1002.88
2012,03,11,13,53,1002.88
2012,03,11,13,54,1002.88
2012,03,11,13,55,1002.88
2012,03,11,13,56,1002.88
2012,03,11,13,57,1002.88
2012,03,11,13,58,1002.88
2012,03,11,13,59,1002.88
2012,03,11,14,00,1002.95
2012,03,11,14,01,1002.95
2012,03,11,14,02,1002.95
2012,03,11,14,03,1002.95
2012,03,11,14,04,1002.95
2012,03,11,14,05,1002.95
2012,03,11,14,06,1002.95
2012,03,11,14,07,1002.95
2012,03,11,14,08,1002.95
2012,03,11,14,09,1002.95
2012,03,11,14,10,1002.95
2012,03,11,14,11,1002.95
2012,03,11,14,12,1002.95
2012,03,11,14,13,1002.95
2012,03,11,14,14,1002.95
2012,03,11,14,15,1002.91
2012,03,11,14,16,1002.91
2012,03,11,14,17,1002.91
2012,03,11,14,18,1002.91
2012,03,11,14,19,1002.91
2012,03,11,14,20,1002.91
2012,03,11,14,21,1002.91
2012,03,11,14,22,1002.91
2012,03,11,14,23,1002.91
2012,03,11,14,24,1002.91
2012,03,11,14,25,1002.91
2012,03,11,14,26,1002.91
2012,03,11,14,27,1002.91
2012,03,11,14,28,1002.91
2012,03,11,14,29,1002.91
2012,03,11,14,30,1002.95
2012,03,11,14,31,1002.95
2012,03,11,14,32,1002.95
2012,03,11,14,33,1002.95
2012,03,11,14,34,1002.95
2012,03,11,14,35,1002.95
2012,03,11,14,36,1002.95
2012,03,11,14,37,1002.95
2012,03,11,14,38,1002.95
2012,03,11,14,39,1002.95
2012,03,11,14,40,1002.95
2012,03,11,14,41,1002.95
2012,03,11,14,42,1002.95
2012,03,11,14,43,1002.95
2012,03,11,14,44,1002.95
2012,03,11,14,45,1003.21
2012,03,11,14,46,1003.22
2012,03,11,14,47,1003.22
2012,03,11,14,48,1003.22
2012,03,11,14,49,1003.22
2012,03,11,14,50,1003.22
2012,03,11,14,51,1003.22
2012,03,11,14,52,1003.22
2012,03,11,14,53,1003.22
2012,03,11,14,54,1003.22
2012,03,11,14,55,1003.22
2012,03,11,14,56,1003.22
2012,03,11,14,57,1003.22
2012,03,11,14,58,1003.22
2012,03,11,14,59,1003.22
2012,03,11,15,00,1003.41
2012,03,11,15,01,1003.42
2012,03,11,15,02,1003.42
2012,03,11,15,03,1003.42
2012,03,11,15,04,1003.42
2012,03,11,15,05,1003.42
2012,03,11,15,06,1003.42
2012,03,11,15,07,1003.42
2012,03,11,15,08,1003.42
2012,03,11,15,09,1003.42
2012,03,11,15,10,1003.42
2012,03,11,15,11,1003.42
2012,03,11,15,12,1003.42
2012,03,11,15,13,1003.42
2012,03,11,15,14,1003.42
2012,03,11,15,15,1003.58
2012,03,11,15,16,1003.59
2012,03,11,15,17,1003.59
2012,03,11,15,18,1003.59
2012,03,11,15,19,1003.59
2012,03,11,15,20,1003.59
2012,03,11,15,21,1003.59
2012,03,11,15,22,1003.59
2012,03,11,15,23,1003.59
2012,03,11,15,24,1003.59
2012,03,11,15,25,1003.59
2012,03,11,15,26,1003.59
2012,03,11,15,27,1003.59
2012,03,11,15,28,1003.59
2012,03,11,15,29,1003.59
2012,03,11,15,30,1003.96
2012,03,11,15,31,1003.96
2012,03,11,15,32,1003.96
2012,03,11,15,33,1003.96
2012,03,11,15,34,1003.96
2012,03,11,15,35,1003.96
2012,03,11,15,36,1003.96
2012,03,11,15,37,1003.96
2012,03,11,15,38,1003.96
2012,03,11,15,39,1003.96
2012,03,11,15,40,1003.96
2012,03,11,15,41,1003.96
2012,03,11,15,42,1003.96
2012,03,11,15,43,1003.96
2012,03,11,15,44,1003.96
2012,03,11,15,45,1004.00
2012,03,11,15,46,1004.00
2012,03,11,15,47,1004.00
2012,03,11,15,48,1004.00
2012,03,11,15,49,1004.00
2012,03,11,15,50,1004.00
2012,03,11,15,51,1004.00
2012,03,11,15,52,1004.00
2012,03,11,15,53,1004.00
2012,03,11,15,54,1004.00
2012,03,11,15,55,1004.00
2012,03,11,15,56,1004.00
2012,03,11,15,57,1004.00
2012,03,11,15,58,1004.00
2012,03,11,15,59,1004.00
2012,03,11,16,00,1004.03
2012,03,11,16,01,1004.03
2012,03,11,16,02,1004.03
2012,03,11,16,03,1004.03
2012,03,11,16,04,1004.03
2012,03,11,16,05,1004.03
2012,03,11,16,06,1004.03
2012,03,11,16,07,1004.03
2012,03,11,16,08,1004.03
2012,03,11,16,09,1004.03
2012,03,11,16,10,1004.03
2012,03,11,16,11,1004.03
2012,03,11,16,12,1004.03
2012,03,11,16,13,1004.03
2012,03,11,16,14,1004.03
2012,03,11,16,15,1004.36
2012,03,11,16,16,1004.37
2012,03,11,16,17,1004.37
2012,03,11,16,18,1004.37
2012,03,11,16,19,1004.37
2012,03,11,16,20,1004.37
2012,03,11,16,21,1004.37
2012,03,11,16,22,1004.37
2012,03,11,16,23,1004.37
2012,03,11,16,24,1004.37
2012,03,11,16,25,1004.37
2012,03,11,16,26,1004.37
2012,03,11,16,27,1004.37
2012,03,11,16,28,1004.37
2012,03,11,16,29,1004.37
2012,03,11,16,30,1004.44
2012,03,11,16,31,1004.44
2012,03,11,16,32,1004.44
2012,03,11,16,33,1004.44
2012,03,11,16,34,1004.44
2012,03,11,16,35,1004.44
2012,03,11,16,36,1004.44
2012,03,11,16,37,1004.44
2012,03,11,16,38,1004.44
2012,03,11,16,39,1004.44
2012,03,11,16,40,1004.44
2012,03,11,16,41,1004.44
2012,03,11,16,42,1004.44
2012,03,11,16,43,1004.44
2012,03,11,16,44,1004.44
2012,03,11,16,45,1004.47
2012,03,11,16,46,1004.47
2012,03,11,16,47,1004.47
2012,03,11,16,48,1004.47
2012,03,11,16,49,1004.47
2012,03,11,16,50,1004.47
2012,03,11,16,51,1004.47
2012,03,11,16,52,1004.47
2012,03,11,16,53,1004.47
2012,03,11,16,54,1004.47
2012,03,11,16,55,1004.47
2012,03,11,16,56,1004.47
2012,03,11,16,57,1004.47
2012,03,11,16,58,1004.47
2012,03,11,16,59,1004.47
2012,03,11,17,00,1004.50
2012,03,11,17,01,1004.50
2012,03,11,17,02,1004.50
2012,03,11,17,03,1004.50
2012,03,11,17,04,1004.50